[ hide orbit diagram ]
For accurate long-term ephemerides, please instead use our Horizons system.This orbit viewer was implemented using two-body methods, and hence should not be used for determining accurate long-term trajectories (over several years or decades) or planetary encounter circumstances.
Orbital Elements at Epoch 2459000.5 (2020-May-31.0) TDB
Reference: JPL 21 (heliocentric ecliptic J2000)
Element | Value | Uncertainty (1-sigma) | Units |
e | .137355834685079 | 4.3657e-08 | |
a | 3.191699670832586 | 2.1877e-08 | au |
q | 2.753301098481284 | 1.4764e-07 | au |
i | 4.762558003231184 | 4.1198e-06 | deg |
node | 293.9812033765845 | 5.6446e-05 | deg |
peri | 173.3735708944849 | 5.8975e-05 | deg |
M | 275.2284197593141 | 1.7729e-05 | deg |
tp | 2459490.932489849452 (2021-Oct-03.43248985) | 0.00010456 | TDB |
period | 2082.722721984428 5.70 | 2.1413e-05 5.863e-08 | d yr |
n | .1728506613962469 | 1.7771e-09 | deg/d |
Q | 3.630098243183888 | 2.4881e-08 | au |
|
| | Orbit Determination Parameters
Additional Information
|
[ show covariance matrix ]
Physical Parameter Table
Parameter |
Symbol |
Value |
Units |
Sigma |
Reference |
Notes |
absolute magnitude |
H |
14.6 |
|
n/a |
MPO493571 |
|
diameter |
diameter |
5.913 |
km |
0.361 |
urn:nasa:pds:neowise_diameters_albedos::2.0[mainbelt] (http://adsabs.harvard.edu/abs/2011ApJ...741...68M) |
|
geometric albedo |
albedo |
0.073 |
|
0.031 |
urn:nasa:pds:neowise_diameters_albedos::2.0[mainbelt] (http://adsabs.harvard.edu/abs/2011ApJ...741...68M) |
|
|
101544 (1998 YS21) Discovered 1998-Dec-26 by Spacewatch at Kitt Peak |
Reference: 20051019/Numbers.arc | Last Updated: 2005-10-26 |
|
[ show close-approach data ]
|